Regional Weather Roundup
Issued by NWS Sioux Falls, SD

Home | Current Version | Previous Version | Text Only | Print | Product List | Glossary On
Versions: 1 2 3 4 5 6 7 8 9 10 11 12 13 14 15 16 17 18 19 20 21 22 23 24 25 26 27 28 29 30 31 32 33 34 35 36 37 38 39 40 41 42 43 44 45 46 47 48 49 50
000
ASUS43 KFSD 201702
RWRFSD

WEATHER ROUNDUP FOR SE SOUTH DAKOTA/SW MINNESOTA/NW IOWA
NATIONAL WEATHER SERVICE SIOUX FALLS SD
1200 PM CDT FRI OCT 20 2017

NOTE: "FAIR" INDICATES FEW OR NO CLOUDS BELOW 12,000 FEET WITH NO
SIGNIFICANT WEATHER AND OR OBSTRUCTIONS TO VISIBILITY.


SDZ038>040-050-052>070-201800-
SOUTHEAST SOUTH DAKOTA

CITY           SKY/WX    TMP DP  RH WIND       PRES   REMARKS
BROOKINGS      SUNNY     67  53  61 S25G33    29.69F
CHAMBERLAIN    SUNNY     71  53  52 S18G24    29.58F
HURON          SUNNY     69  51  52 S20G31    29.60F
MADISON        FAIR      64  54  68 S23G36    29.70F
MITCHELL       SUNNY     70  52  52 S25G37    29.63F
SIOUX FALLS    MOSUNNY   68  55  63 S20G32    29.73F
WINNER         FAIR      69  51  52 S26G35    29.58F
YANKTON        SUNNY     70  54  56 S21G29    29.72F
$$

MNZ071-072-080-081-089-090-097-098-201800-
SOUTHWEST MINNESOTA

CITY           SKY/WX    TMP DP  RH WIND       PRES   REMARKS
FAIRMONT       SUNNY     67  53  61 S22       29.86F
JACKSON        SUNNY     70  52  52 S23       29.84F
MARSHALL       MOSUNNY   70  53  54 S24       29.72F
MONTEVIDEO     MOSUNNY   72  52  49 SW16G25   29.72F
PIPESTONE      SUNNY     64  52  63 S23G31    29.75F
REDWOOD FALLS  SUNNY     70  51  51 S18G28    29.77F
TRACY          MOSUNNY   71  54  56 S20G25    29.76F
WORTHINGTON    SUNNY     70  52  52 S21G30    29.81F
$$

IAZ001>003-012>014-020>022-031-032-NEZ013-014-SDZ071-201800-
NORTHWEST IOWA

CITY           SKY/WX    TMP DP  RH WIND       PRES   REMARKS
CHEROKEE       MOSUNNY   69  56  63 S22       29.84F
DENISON        CLOUDY    70  55  60 S16G28    29.90F
ESTHERVILLE    LGT RAIN  69  54  58 S21G30    29.85F
LE MARS        MOSUNNY   70  54  56 S23G37    29.79F
ORANGE CITY    PTSUNNY   70  55  60 S23G29    29.80F
SHELDON        MOSUNNY   70  54  56 S16G25    29.80F
SIOUX CITY     SUNNY     69  55  60 S21       29.82F
SPENCER        SUNNY     73  53  49 S22G31    29.84F
STORM LAKE     MOSUNNY   70  54  56 S26       29.86F
$$

ABBREVIATIONS USED IN REMARKS
   TC - TEMPERATURE IN CELSIUS
  WCI - WIND CHILL INDEX
   HX - HEAT INDEX
  VSB - VISIBILITY




USA.gov is the U.S. government's official web portal to all federal, state and local government web resources and services.